Preview of NWS' New Version of Forecast
This preview is not operational and should not be used for support decisions.

Regional Weather Roundup (RWR)

Issued by National Weather Service (NWS)

                            
000
ASUS42 KTBW 180416
RWRFL 
FLORIDA REGIONAL WEATHER ROUNDUP
NATIONAL WEATHER SERVICE TAMPA BAY RUSKIN FL
1200 AM EDT MON MAR 18 2019

NOTE: "FAIR" INDICATES FEW OR NO CLOUDS BELOW 12,000 FEET WITH NO
SIGNIFICANT WEATHER AND/OR OBSTRUCTIONS TO VISIBILITY.

FLZ001>010-012>015-112-114-115-180500-
PANHANDLE FLORIDA
  
CITY           SKY/WX    TMP DP  RH WIND       PRES   REMARKS
PENSACOLA      FAIR      55  37  50 N8        30.21S                  
PENSACOLA NAS  FAIR      51  40  65 N3        30.22R                  
MILTON NAS     FAIR      49  39  68 N3        30.22S                  
CRESTVIEW      FAIR      45  41  86 CALM      30.23R                  
DUKE FIELD     FAIR      47  41  79 CALM      30.21S HAZE             
VALPARAISO     FAIR      52  38  57 N5        30.20R                  
MARY ESTHER    PTCLDY    50  38  64 N7        30.20R                  
PANAMA CITY    FAIR      54  46  74 NW3       30.20R                  
TYNDALL AFB    MOCLDY    58  44  59 N5        30.21R                  
APALACHICOLA   FAIR      55  44  66 E5        30.19S                  

STATION/POSITION SKY/WX   TEMP    WIND        PRES    WAVE   SWELL
                          AIR SEA DIR/SP/G            HT/PER HT/PER
                          (F)     (DEG/KT/KT) (MB)    (FT/S) (FT/S)
30.1N   87.6W              61      20/ 14/ 16 1023.3R   1/ 3
29.2N   88.2W                      30/ 17/ 23 1023.1
PANAMA CITY BEAC           57 65   50/  3/  4 1022.9R
TOWER C                    60      50/ 14/ 16 1022.1S

$$
FLZ011-016>038-118-127-128-134-139-239-180500-
NORTH FLORIDA
  
CITY           SKY/WX    TMP DP  RH WIND       PRES   REMARKS
MARIANNA       FAIR      54  45  71 NW3       30.20R                  
TALLAHASSEE    FAIR      52  48  86 CALM      30.20R                  
PERRY          MOCLDY    55  48  79 NE3       30.19F                  
LIVE OAK       MOCLDY    52  50  93 CALM      30.19S                  
CROSS CITY     CLOUDY    56  49  78 NE6       30.17F                  
LAKE CITY      CLOUDY    50  46  87 N3        30.19R                  
GAINESVILLE    CLOUDY    58  48  69 N5        30.19S                  
WILLISTON        N/A    N/A N/A N/A MISG        N/A                   
PALATKA        CLOUDY    55  48  76 N6        30.17R                  
MAYPORT NAS    CLOUDY    59  46  62 N14       30.16S                  
JACKSONVILLE   CLOUDY    53  46  77 N6        30.16F                  
JAX NAS        CLOUDY    57  45  64 N12       30.18R                  
JAX CECIL      MOCLDY   N/A N/A N/A N5        30.17S                  
FERNANDINA BEA CLOUDY    55  47  74 N6        30.18R                  
ST AUGUSTINE   CLOUDY    59  49  69 N12       30.17R                  
PALM COAST     CLOUDY    58  52  80 N7        30.15R                  

STATION/POSITION SKY/WX   TEMP    WIND        PRES    WAVE   SWELL
                          AIR SEA DIR/SP/G            HT/PER HT/PER
                          (F)     (DEG/KT/KT) (MB)    (FT/S) (FT/S)
SHELL POINT      NOT AVBL
KEATON BEACH               55      30/  5/  7 1022.2S
CEDAR KEY                  57      40/  9/ 12 1021.3R
FERNANDINA                 56 64  330/  5/  8 1022.5R
30.7N   81.3W                 63                N/A     3/ 5
MAYPORT                    59 64   20/ 10/ 12 1021.3S
31.4N   80.9W              60 62   20/ 12/ 16 1021.8R   3/ 5   2/ 9
ST AUGUSTINE               60 63  360/ 19/ 21 1021.0R

$$
FLZ040-043>046-052-053-057-058-063-144-180500-
INTERIOR CENTRAL FLORIDA
  
CITY           SKY/WX    TMP DP  RH WIND       PRES   REMARKS
OCALA          CLOUDY    57  50  77 NE7       30.17R                  
LEESBURG       CLOUDY    57  50  77 N8        30.15S                  
SANFORD        CLOUDY    58  51  78 N7        30.12F                  
ORLANDO EXEC   CLOUDY    59  51  75 N7        30.13S                  
ORLANDO INTL   CLOUDY    59  51  75 N10       30.13S                  
KISSIMMEE      MOCLDY    60  54  80 N8        30.13S                  
WINTER HAVEN   MOCLDY    61  55  81 NE12      30.12F                  
LAKELAND         N/A     61  54  77 NE9       30.12R                  
BARTOW         CLOUDY    61  57  88 N8        30.09F                  
SEBRING        FAIR      62  59  90 N9        30.10S                  
OKEECHOBEE       N/A     61  59  94 CALM      30.09R                  

$$
FLZ041-047-054-059-064-141-147-180500-
EAST CENTRAL FLORIDA
  
CITY           SKY/WX    TMP DP  RH WIND       PRES   REMARKS
DAYTONA BEACH  CLOUDY    59  54  83 N9        30.13F                  
DELAND         MOCLDY    57  50  77 N6        30.13F                  
JFK SPACE CTR  CLOUDY    61  57  86 N10         N/A                   
CAPE CANAVERAL CLOUDY    62  57  85 N10       30.09F                  
PATRICK AFB    CLOUDY    61  61  98 N15G21    30.10F                  
MELBOURNE      CLOUDY    62  57  83 N14       30.10S                  
VERO BEACH     CLOUDY    64  60  87 N15       30.08F                  
FT PIERCE      CLOUDY    65  60  84 N5        30.08S                  
STUART         MOCLDY    66  61  82 N8G16     30.09S                  

STATION/POSITION SKY/WX   TEMP    WIND        PRES    WAVE   SWELL
                          AIR SEA DIR/SP/G            HT/PER HT/PER
                          (F)     (DEG/KT/KT) (MB)    (FT/S) (FT/S)
28.5N   80.2W              66     330/ 19/ 25 1019.3R   6/ 6
28.9N   78.5W              69 75   30/ 17/ 21 1018.5R   5/ 5   2/ 9
TRIDENT PIER               61 68  350/ 10/ 15 1020.4F
28.4N   80.5W                 68                N/A     3/ 6
27.5N   80.2W                 71                N/A     5/ 6

$$
FLZ050-056-061-142-242-148-248-149-249-151-251-155-255-
160-260-180500-
WEST CENTRAL FLORIDA
  
CITY           SKY/WX    TMP DP  RH WIND       PRES   REMARKS
CRYSTAL RIVER  CLOUDY    59  52  77 NE6       30.15S                  
INVERNESS      CLOUDY    59  55  88 NE9       30.16R                  
BROOKSVILLE    MOCLDY    60  52  74 N9        30.14R                  
CLEARWATER AIR FAIR      61  54  77 NE7       30.10S                  
ST PETE CLEARW FAIR      63  58  83 NE7       30.10F                  
TAMPA INTL     CLOUDY    63  55  75 NE8       30.11S                  
TAMPA EXEC     FAIR      61  55  82 CALM      30.12S                  
PLANT CITY     MOCLDY    63  57  82 N8        30.13S                  
MACDILL AFB    MOCLDY    62  56  81 E10       30.11R                  
PETER O KNIGHT FAIR      63  59  88 NE13      30.11S                  
ST PETERSBURG  MOCLDY    65  59  81 NE10      30.09S                  
SARASOTA       FAIR      65  61  87 NE8       30.07S                  
VENICE         FAIR      66  63  88 NE13G18   30.09S                  

STATION/POSITION SKY/WX   TEMP    WIND        PRES    WAVE   SWELL
                          AIR SEA DIR/SP/G            HT/PER HT/PER
                          (F)     (DEG/KT/KT) (MB)    (FT/S) (FT/S)
27.3N   84.2W                 73                N/A     4/ 5
CLEARWATER BEACH           63 74   40/  8/ 11 1019.5F
MIDDLE TAMPA BAY           64      60/ 12/ 14 1019.4R
VENICE           NOT AVBL

$$
FLZ066-069-070-075>078-162-262-165-265-180500-
SOUTHWEST FLORIDA AND KEYS
  
CITY           SKY/WX    TMP DP  RH WIND       PRES   REMARKS
PUNTA GORDA    FAIR      65  60  84 NE10      30.10R                  
FT MYERS       FAIR      69  62  78 NE9       30.07R                  
SOUTHWEST INTL FAIR      69  62  78 NE9       30.07S                  
NAPLES         FAIR      73  66  78 NE9       30.06R                  
MARCO ISLAND   MOCLDY    73  67  81 N9        30.07R                  
IMMOKALEE      CLOUDY    68  61  77 N6        30.07R                  
MARATHON       FAIR      79  67  66 NW6       30.05R                  
KEY WEST NAS   FAIR      77  69  76 N9        30.06R                  
KEY WEST INTL  FAIR      77  69  76 N9        30.06R                  

STATION/POSITION SKY/WX   TEMP    WIND        PRES    WAVE   SWELL
                          AIR SEA DIR/SP/G            HT/PER HT/PER
                          (F)     (DEG/KT/KT) (MB)    (FT/S) (FT/S)
NAPLES                     73 78   50/  5/  7 1017.9R
26.0N   85.6W              71 80   20/ 16/ 19 1019.7R   3/ 4
DRY TORTUGAS               76      40/  8/ 10 1018.0R
SAND KEY                   77                 1017.8R
SOMBRERO KEY               77                 1017.0R

$$
FLZ067-068-071>074-168-172>174-180500-
SOUTHEAST FLORIDA 
  
CITY           SKY/WX    TMP DP  RH WIND       PRES   REMARKS
W PALM BEACH   MOCLDY    68  64  87 N9        30.06F                  
FT LAUDER-EXEC FAIR      70  68  93 N6        30.05R                  
FT LAUDERDALE  FAIR      71  66  84 N10       30.05R                  
POMPANO BEACH  FAIR      70  65  84 N7        30.05S                  
PEMBROKE PINES FAIR      72  67  84 N10       30.06R                  
OPA LOCKA      FAIR      75  69  81 NE8       30.05R                  
MIAMI          MOCLDY    74  72  93 NE9       30.04S                  
WEST KENDALL   MOCLDY    73  70  90 N6        30.04S                  
HOMESTEAD      FAIR      71  68  92 CALM      30.03S                  

STATION/POSITION SKY/WX   TEMP    WIND        PRES    WAVE   SWELL
                          AIR SEA DIR/SP/G            HT/PER HT/PER
                          (F)     (DEG/KT/KT) (MB)    (FT/S) (FT/S)
VIRGINIA KEY               74 79   10/  2/  3 1016.6R
LAKE WORTH                 69 78  360/ 14/ 16 1018.8F
SETTLEMENT POINT           76     340/  6/  7 1017.3S

$$